Location: Neuvy Saint Sepulchre
(46.5953°N, 1.8122°E)
Time: 03:35:24
(UTC+02:00)

Tiangong - Visible Passes

Search period start: 21 October 2021 00:00
Search period end: 31 October 2021 00:00
Orbit: 382 x 384 km, 41.5° (Epoch: 20 October)

Date Brightness Start Highest point End Pass type
(mag) Time Alt. Az. Time Alt. Az. Time Alt. Az.
21 Oct 2.6 20:05:23 10° SW 20:08:05 26° SSE 20:09:24 19° SE visible
22 Oct 2.3 20:41:34 10° WSW 20:44:13 31° S 20:44:13 31° S visible
23 Oct 2.4 19:41:32 10° WSW 19:44:22 30° S 19:46:51 12° ESE visible
23 Oct 3.8 21:18:02 10° WSW 21:19:01 16° WSW 21:19:01 16° WSW visible
24 Oct 2.4 20:17:50 10° WSW 20:20:41 30° S 20:21:37 25° SSE visible
25 Oct 2.5 19:17:42 10° WSW 19:20:34 32° S 19:23:26 10° ESE visible
25 Oct 3.2 20:54:25 10° WSW 20:56:25 21° SSW 20:56:25 21° SSW visible
26 Oct 2.8 19:54:05 10° WSW 19:56:49 27° S 19:59:03 13° SE visible
27 Oct 3.5 20:30:54 10° WSW 20:32:57 16° SSW 20:33:56 14° S visible
28 Oct 3.3 19:30:20 10° WSW 19:32:51 22° SSW 19:35:21 10° SE visible
29 Oct 4.0 20:07:49 10° SW 20:08:50 11° SSW 20:09:52 10° S visible
